Regional Weather Roundup
Issued by NWS

Home | Current Version | Previous Version | Text Only | Print | Product List | Glossary On
Versions: 1 2 3 4 5 6 7 8 9 10 11 12 13 14 15 16 17 18 19 20 21 22 23 24 25 26 27 28 29 30 31 32 33 34 35 36 37 38 39 40 41 42 43 44 45 46 47 48 49 50
000
ASUS43 KFSD 262010
RWRSD

WEATHER ROUNDUP FOR SOUTH DAKOTA
NATIONAL WEATHER SERVICE SIOUX FALLS SD
200 PM CST THU FEB 26 2015

NOTE: "FAIR" INDICATES FEW OR NO CLOUDS BELOW 12,000 FEET WITH NO
SIGNIFICANT WEATHER AND/OR OBSTRUCTIONS TO VISIBILITY.


SDZ001>005-009-010-012>017-262100-
NORTHWEST AND NORTH CENTRAL SOUTH DAKOTA

CITY           SKY/WX    TMP DP  RH WIND       PRES   REMARKS
BUFFALO          N/A      8  -6  52 N9        30.36F WCI  -5
FAITH            N/A     11  -5  48 N14       30.44F WCI  -5
MOBRIDGE       SUNNY      8  -6  52 N13       30.51F WCI  -8
$$

SDZ012>016-024>037-041>051-057-063-072>074-262100-
SOUTHWEST AND SOUTH CENTRAL SOUTH DAKOTA

CITY           SKY/WX    TMP DP  RH WIND       PRES   REMARKS
RAPID CTY ARPT MOSUNNY    8  -1  66 N17       30.41F WCI -10
PIERRE         MOSUNNY   11  -6  46 N13       30.52F WCI  -4
CUSTER         LGT SNOW   6   0  76 S6        30.13F VSB 3/4 WCI  -4
ELLSWORTH AFB  MOSUNNY    8  -2  62 N15       30.40S WCI  -9
PHILIP         MOSUNNY   13  -3  49 N14       30.49F WCI  -2
PINE RIDGE     PTSUNNY   11  -1  58 N7        30.39F WCI   0
WINNER         CLOUDY    11  -3  53 N14       30.50F WCI  -5
$$

SDZ004>011-016>023-039-040-262100-
NORTHEAST SOUTH DAKOTA

CITY           SKY/WX    TMP DP  RH WIND       PRES   REMARKS
ABERDEEN       SUNNY      5  -7  57 N15       30.56F WCI -13
WATERTOWN      CLOUDY     1  -7  68 NW14      30.46S WCI -17
SISSETON         N/A      2  -7  66 N17       30.53F WCI -18
$$

SDZ017-020-022-023-036>040-048>070-262100-
SOUTHEAST SOUTH DAKOTA

CITY           SKY/WX    TMP DP  RH WIND       PRES   REMARKS
SIOUX FALLS    PTSUNNY    5  -5  63 N17       30.49F WCI -14
HURON          SUNNY      4  -6  63 NW15      30.56S WCI -14
CHAMBERLAIN    MOSUNNY   11  -6  47 N14       30.52S WCI  -5
MITCHELL       MOSUNNY    8  -3  61 NW13G24   30.55F WCI  -8
YANKTON        PTSUNNY   10  -2  56 NW17G23   30.53F WCI  -7
$$

ABBREVIATIONS USED IN REMARKS
   TC - TEMPERATURE IN CELSIUS
  WCI - WIND CHILL INDEX
   HX - HEAT INDEX
  VSB - VISIBILITY



USA.gov is the U.S. government's official web portal to all federal, state and local government web resources and services.